SeaSat 1 - Orbit

View from above orbital plane
View from above orbital plane
View from above satellite
View from above satellite

Ground track
Ground track

The orbit data is extracted from the following two-line orbital elements,

1 10967U 78064A   13141.86678123  .00000213  00000-0  10491-3 0   129
2 10967 107.9927 075.1778 0002602 299.1162 093.3121 14.42705366832038
Epoch (UTC): 21 May 2013 20:48:09
Eccentricity: 0.0002602
inclination: 107.9927°
perigee height: 748 km
apogee height: 751 km
right ascension of ascending node: 75.1778°
argument of perigee: 299.1162°
revolutions per day: 14.42705366
mean anomaly at epoch: 93.3121°
orbit number at epoch: 83203

The dashed part of the orbit path shows where the satellite is in the earth's shadow,  

Developed and maintained by Chris Peat, Heavens-Above GmbH. Please read the updated FAQ before sending e-mail. Imprint. DLR